Location: Allos
(44.2333°N, 6.6333°E)
Time: 16:51:02
(UTC+00:00)

SKYMED 2 - Pass Details

Date: 01 December 2020
Orbit: 621 x 623 km, 97.9° (Epoch: 23 January)

Event Time Altitude Azimuth Distance (km) Brightness Sun altitude
Exits shadow 18:15:21 17° 355° (N) 1,573 5.6 -24.3°
Maximum altitude 18:18:22 45° 289° (WNW) 853 4.6 -24.9°
Drops below altitude 10° 18:22:29 10° 217° (SW) 1,987 6.7 -25.6°
Sets 18:24:44 0° 211° (SSW) 2,889 7.5 -26.0°
